Weather History for Nacogdoches, TX

Change the Weather History Date:

Wednesday, December 12, 2012

  Actual Average Record
Temperature  
Mean Temperature 39 °F -  
Max Temperature 55 °F 58 °F 78 °F (1996)
Min Temperature 23 °F 36 °F 23 °F (2012)
Degree Days  
Heating Degree Days 26    
Moisture  
Dew Point 21 °F    
Average Humidity 61    
Maximum Humidity 86    
Minimum Humidity 18    
Precipitation  
Precipitation 0.00 in - - ()
Sea Level Pressure  
Sea Level Pressure 30.29 in    
Wind  
Wind Speed 2 mph (East)    
Max Wind Speed 10 mph    
Max Gust Speed -    
Visibility 10 miles    
Events      
Averages and records for this station are not official NWS values.
T = Trace of Precipitation, MM = Missing Value Source: NWS Daily Summary

Daily Weather History Graph

Daily Weather History Graph

Search for Another Location

Airport:

Trip Planner

Search our weather history database for the weather conditions in past years. The results will help you decide how hot, cold, wet, or windy it might be!

Date:

Astronomy

Dec. 12, 2012 Rise Set
Actual Time 7:09 AM CST 5:16 PM CST
Civil Twilight 6:42 AM CST 5:43 PM CST
Nautical Twilight 6:12 AM CST 6:13 PM CST
Astronomical Twilight 5:42 AM CST 6:43 PM CST
Moon 6:15 AM CST (12/12) 4:53 PM CST (12/12)
Length of Visible Light 11h 00m
Length of Day
10h 07m
Waning Crescent, 1% of the Moon is Illuminated
Dec 12
Waning Crescent
Dec 13
New
Dec 19
First Quarter
Dec 28
Full
Jan 4
Last Quarter

Hourly Weather History & Observations

Time (CST) Temp. Windchill Dew Point Humidity Pressure Visibility Wind Dir Wind Speed Gust Speed Precip Events Conditions
12:15 AM 28.4 °F 24.6 °F 21.2 °F 74% 30.25 in 10.0 mi NNW 3.5 mph - N/A   Clear
12:35 AM 28.4 °F 24.6 °F 23.0 °F 80% 30.25 in 10.0 mi NW 3.5 mph - N/A   Clear
12:55 AM 28.4 °F - 21.2 °F 74% 30.25 in 10.0 mi Calm Calm - N/A   Clear
1:15 AM 26.6 °F - 21.2 °F 80% 30.24 in 10.0 mi Calm Calm - N/A   Clear
1:35 AM 26.6 °F - 21.2 °F 80% 30.24 in 10.0 mi Calm Calm - N/A   Clear
1:55 AM 26.6 °F - 21.2 °F 80% 30.24 in 10.0 mi Calm Calm - N/A   Clear
2:15 AM 26.6 °F - 21.2 °F 80% 30.24 in 10.0 mi Calm Calm - N/A   Clear
2:35 AM 26.6 °F - 21.2 °F 80% 30.25 in 10.0 mi Calm Calm - N/A   Clear
2:55 AM 26.6 °F - 21.2 °F 80% 30.24 in 10.0 mi Calm Calm - N/A   Clear
3:15 AM 24.8 °F - 19.4 °F 80% 30.25 in 10.0 mi Calm Calm - N/A   Clear
3:35 AM 24.8 °F 20.5 °F 19.4 °F 80% 30.25 in 10.0 mi NW 3.5 mph - N/A   Clear
3:55 AM 24.8 °F 20.5 °F 21.2 °F 86% 30.25 in 10.0 mi NW 3.5 mph - N/A   Clear
4:15 AM 24.8 °F 20.5 °F 19.4 °F 80% 30.26 in 10.0 mi NNW 3.5 mph - N/A   Clear
4:35 AM 24.8 °F - 19.4 °F 80% 30.25 in 10.0 mi Calm Calm - N/A   Clear
4:55 AM 24.8 °F 20.5 °F 19.4 °F 80% 30.26 in 10.0 mi NW 3.5 mph - N/A   Clear
5:15 AM 24.8 °F - 17.6 °F 74% 30.26 in 10.0 mi Calm Calm - N/A   Clear
5:35 AM 23.0 °F - 17.6 °F 80% 30.27 in 10.0 mi Calm Calm - N/A   Clear
5:55 AM 24.8 °F - 19.4 °F 80% 30.28 in 10.0 mi Calm Calm - N/A   Clear
6:15 AM 23.0 °F - 19.4 °F 86% 30.29 in 10.0 mi Calm Calm - N/A   Clear
6:35 AM 23.0 °F - 17.6 °F 80% 30.30 in 10.0 mi Calm Calm - N/A   Clear
6:55 AM 23.0 °F - 17.6 °F 80% 30.31 in 10.0 mi Calm Calm - N/A   Clear
7:15 AM 23.0 °F - 19.4 °F 86% 30.32 in 10.0 mi Calm Calm - N/A   Clear
7:35 AM 23.0 °F - 17.6 °F 80% 30.33 in 10.0 mi Calm Calm - N/A   Clear
7:55 AM 24.8 °F - 19.4 °F 80% 30.33 in 10.0 mi Calm Calm - N/A   Clear
8:15 AM 26.6 °F - 21.2 °F 80% 30.34 in 10.0 mi Calm Calm - N/A   Clear
8:35 AM 30.2 °F - 26.6 °F 86% 30.35 in 10.0 mi Calm Calm - N/A   Clear
8:55 AM 33.8 °F - 28.4 °F 81% 30.35 in 10.0 mi Calm Calm - N/A   Clear
9:15 AM 39.2 °F 35.0 °F 28.4 °F 65% 30.36 in 10.0 mi ESE 5.8 mph - N/A   Clear
9:35 AM 42.8 °F 39.3 °F 26.6 °F 53% 30.36 in 10.0 mi East 5.8 mph - N/A   Clear
9:55 AM 44.6 °F 39.2 °F 26.6 °F 49% 30.36 in 10.0 mi East 10.4 mph - N/A   Clear
10:15 AM 44.6 °F 39.7 °F 26.6 °F 49% 30.36 in 10.0 mi ESE 9.2 mph - N/A   Clear
10:35 AM 46.4 °F 41.5 °F 26.6 °F 46% 30.35 in 10.0 mi ESE 10.4 mph - N/A   Clear
10:55 AM 46.4 °F 44.3 °F 24.8 °F 43% 30.36 in 10.0 mi SE 4.6 mph - N/A   Clear
11:15 AM 48.2 °F - 24.8 °F 40% 30.35 in 10.0 mi Calm Calm - N/A   Clear
11:35 AM 48.2 °F - 21.2 °F 34% 30.35 in 10.0 mi Calm Calm - N/A   Clear
11:55 AM 50.0 °F - 21.2 °F 32% 30.34 in 10.0 mi SSE 3.5 mph - N/A   Clear
12:15 PM 51.8 °F - 15.8 °F 24% 30.33 in 10.0 mi SE 3.5 mph - N/A   Clear
12:35 PM 51.8 °F - 15.8 °F 24% 30.32 in 10.0 mi Calm Calm - N/A   Clear
12:55 PM 51.8 °F - 14.0 °F 22% 30.31 in 10.0 mi SE 3.5 mph - N/A   Clear
1:15 PM 51.8 °F - 12.2 °F 21% 30.30 in 10.0 mi SSE 4.6 mph - N/A   Clear
1:35 PM 53.6 °F - 14.0 °F 21% 30.29 in 10.0 mi Calm Calm - N/A   Clear
1:55 PM 53.6 °F - 12.2 °F 19% 30.29 in 10.0 mi Calm Calm - N/A   Clear
2:15 PM 53.6 °F - 12.2 °F 19% 30.28 in 10.0 mi Calm Calm - N/A   Clear
2:35 PM 55.4 °F - 15.8 °F 21% 30.28 in 10.0 mi Calm Calm - N/A   Clear
2:55 PM 55.4 °F - 15.8 °F 21% 30.28 in 10.0 mi North 4.6 mph - N/A   Clear
3:15 PM 55.4 °F - 12.2 °F 18% 30.28 in 10.0 mi SE 3.5 mph - N/A   Clear
3:35 PM 53.6 °F - 12.2 °F 19% 30.28 in 10.0 mi Calm Calm - N/A   Clear
3:55 PM 55.4 °F - 14.0 °F 20% 30.27 in 10.0 mi East 3.5 mph - N/A   Clear
4:15 PM 55.4 °F - 14.0 °F 20% 30.27 in 10.0 mi East 4.6 mph - N/A   Clear
4:35 PM 53.6 °F - 15.8 °F 22% 30.27 in 10.0 mi SE 4.6 mph - N/A   Clear
4:55 PM 51.8 °F - 15.8 °F 24% 30.27 in 10.0 mi ESE 3.5 mph - N/A   Clear
5:15 PM 48.2 °F - 21.2 °F 34% 30.27 in 10.0 mi Calm Calm - N/A   Clear
5:35 PM 42.8 °F - 24.8 °F 49% 30.27 in 10.0 mi Calm Calm - N/A   Clear
5:55 PM 39.2 °F - 24.8 °F 56% 30.27 in 9.0 mi Calm Calm - N/A   Clear
6:15 PM 37.4 °F 34.9 °F 24.8 °F 60% 30.27 in 10.0 mi East 3.5 mph - N/A   Clear
6:35 PM 37.4 °F - 24.8 °F 60% 30.27 in 10.0 mi Calm Calm - N/A   Clear
6:55 PM 35.6 °F - 24.8 °F 65% 30.28 in 10.0 mi Calm Calm - N/A   Clear
7:15 PM 35.6 °F - 24.8 °F 65% 30.28 in 10.0 mi Calm Calm - N/A   Clear
7:35 PM 33.8 °F - 24.8 °F 70% 30.29 in 10.0 mi Calm Calm - N/A   Clear
7:55 PM 33.8 °F - 24.8 °F 70% 30.29 in 10.0 mi Calm Calm - N/A   Clear
8:15 PM 32.0 °F - 24.8 °F 75% 30.29 in 10.0 mi Calm Calm - N/A   Clear
8:35 PM 32.0 °F - 24.8 °F 75% 30.30 in 10.0 mi Calm Calm - N/A   Clear
8:55 PM 30.2 °F - 24.8 °F 80% 30.30 in 10.0 mi Calm Calm - N/A   Clear
9:15 PM 30.2 °F - 24.8 °F 80% 30.31 in 10.0 mi Calm Calm - N/A   Clear
9:35 PM 30.2 °F - 24.8 °F 80% 30.31 in 10.0 mi Calm Calm - N/A   Clear
9:55 PM 28.4 °F - 23.0 °F 80% 30.31 in 10.0 mi Calm Calm - N/A   Clear
10:15 PM 30.2 °F - 23.0 °F 75% 30.31 in 10.0 mi Calm Calm - N/A   Clear
10:35 PM 28.4 °F - 23.0 °F 80% 30.32 in 10.0 mi Calm Calm - N/A   Clear
10:55 PM 28.4 °F - 23.0 °F 80% 30.32 in 10.0 mi Calm Calm - N/A   Clear
11:15 PM 28.4 °F - 21.2 °F 74% 30.32 in 10.0 mi Calm Calm - N/A   Clear
11:35 PM 28.4 °F - 23.0 °F 80% 30.32 in 10.0 mi Calm Calm - N/A   Clear
11:55 PM 28.4 °F - 23.0 °F 80% 30.32 in 10.0 mi Calm Calm - N/A   Clear